Sergeant Bluff, IA

4:22 AM CST on February 10, 2016 (GMT -0600)
Sioux Gateway

Weather History for KSUX - May, 2013

Change the Weather History Date:

Wednesday, May 29, 2013

  Actual Average Record
Temperature  
Mean Temperature 72 °F 65 °F  
Max Temperature 81 °F 77 °F 103 °F (1934)
Min Temperature 63 °F 53 °F 27 °F (1947)
Degree Days  
Heating Degree Days 0 3  
Month to date heating degree days 224 176  
Since 1 July heating degree days 7052 6828  
Cooling Degree Days 7 3  
Month to date cooling degree days 49 48  
Year to date cooling degree days 50 59  
Growing Degree Days 22 (Base 50)    
Moisture  
Dew Point 64 °F    
Average Humidity 77    
Maximum Humidity 93    
Minimum Humidity 60    
Precipitation  
Precipitation 0.79 in 0.13 in 2.27 in (1903)
Month to date precipitation 5.23 3.47  
Year to date precipitation 13.28 9.71  
Snow  
Snow 0.00 in 0.00 in 0.00 in ()
Month to date snowfall 1.4 0.2  
Since 1 July snowfall 45.1 35.0  
Snow Depth 0.00 in    
Sea Level Pressure  
Sea Level Pressure 29.60 in    
Wind  
Wind Speed 14 mph (SSE)    
Max Wind Speed 32 mph    
Max Gust Speed 41 mph    
Visibility 8 miles    
Events Rain , Thunderstorm    
T = Trace of Precipitation, MM = Missing Value Source: NWS Daily Summary

Daily Weather History Graph

Daily Weather History Graph

Search for Another Location

Airport or City:

Trip Planner

Search our weather history database for the weather conditions in past years. The results will help you decide how hot, cold, wet, or windy it might be!

Date:

Astronomy

May. 29, 2013 Rise Set
Actual Time 5:52 AM CDT 8:53 PM CDT
Civil Twilight 5:18 AM CDT 9:27 PM CDT
Nautical Twilight 4:35 AM CDT 10:10 PM CDT
Astronomical Twilight 3:45 AM CDT 11:01 PM CDT
Moon 12:14 AM CDT (5/29) 10:56 AM CDT (5/29)
Length of Visible Light 16h 08m
Length of Day
15h 01m
Waning Gibbous, 73% of the Moon is Illuminated
May 29
Waning Gibbous
May 31
Last Quarter
Jun 8
New
Jun 16
First Quarter
Jun 23
Full

Hourly Weather History & Observations

Time (CDT) Temp. Heat Index Dew Point Humidity Pressure Visibility Wind Dir Wind Speed Gust Speed Precip Events Conditions
12:52 AM 66.0 °F - 60.1 °F 81% 29.66 in 10.0 mi East 8.1 mph - N/A   Clear
1:52 AM 64.0 °F - 61.0 °F 90% 29.69 in 10.0 mi ESE 8.1 mph - N/A   Partly Cloudy
2:52 AM 63.0 °F - 61.0 °F 93% 29.67 in 10.0 mi SE 8.1 mph - N/A   Clear
3:52 AM 66.0 °F - 62.1 °F 87% 29.67 in 10.0 mi SE 10.4 mph - N/A   Overcast
4:52 AM 64.0 °F - 61.0 °F 90% 29.67 in 10.0 mi ESE 6.9 mph - N/A   Partly Cloudy
5:52 AM 64.0 °F - 60.1 °F 87% 29.65 in 10.0 mi ESE 10.4 mph - N/A   Clear
6:11 AM 64.4 °F - 60.8 °F 88% 29.67 in 10.0 mi SE 9.2 mph - N/A Thunderstorm Clear
6:26 AM 64.4 °F - 60.8 °F 88% 29.67 in 10.0 mi SE 10.4 mph - N/A   Clear
6:52 AM 64.9 °F - 62.1 °F 90% 29.66 in 10.0 mi East 4.6 mph - N/A   Clear
7:52 AM 68.0 °F - 63.0 °F 84% 29.66 in 10.0 mi SE 9.2 mph - N/A   Scattered Clouds
8:00 AM 68.0 °F - 62.6 °F 83% 29.67 in 10.0 mi SE 11.5 mph - N/A   Mostly Cloudy
8:52 AM 71.1 °F - 64.9 °F 81% 29.65 in 10.0 mi SE 8.1 mph - N/A   Overcast
9:52 AM 71.1 °F - 64.9 °F 81% 29.64 in 10.0 mi SSE 9.2 mph - N/A   Overcast
10:52 AM 72.0 °F - 64.9 °F 78% 29.64 in 10.0 mi SSE 16.1 mph 25.3 mph N/A   Overcast
11:24 AM 73.4 °F - 66.2 °F 78% 29.65 in 10.0 mi SSE 17.3 mph 23.0 mph N/A   Mostly Cloudy
11:52 AM 72.0 °F - 66.0 °F 81% 29.63 in 10.0 mi South 16.1 mph 24.2 mph N/A   Mostly Cloudy
12:52 PM 78.1 °F - 64.9 °F 64% 29.62 in 10.0 mi South 19.6 mph 25.3 mph N/A   Clear
1:52 PM 77.0 °F - 63.0 °F 62% 29.62 in 10.0 mi SSE 19.6 mph 31.1 mph N/A   Clear
2:52 PM 75.0 °F - 64.0 °F 69% 29.60 in 10.0 mi SSE 12.7 mph - N/A   Clear
3:52 PM 78.1 °F - 66.9 °F 68% 29.55 in 10.0 mi SSE 27.6 mph 34.5 mph N/A   Partly Cloudy
4:52 PM 80.1 °F 82.1 °F 66.0 °F 62% 29.54 in 10.0 mi South 24.2 mph 34.5 mph N/A   Scattered Clouds
5:52 PM 75.9 °F - 66.9 °F 74% 29.44 in 10.0 mi SE 24.2 mph 32.2 mph N/A   Partly Cloudy
6:25 PM 73.4 °F - 66.2 °F 78% 29.54 in 10.0 mi South 26.5 mph 34.5 mph N/A   Mostly Cloudy
6:52 PM 73.0 °F - 66.0 °F 79% 29.54 in 10.0 mi South 24.2 mph 35.7 mph 0.00 in Rain Light Rain
7:47 PM 71.6 °F - 68.0 °F 88% 29.57 in 6.0 mi South 18.4 mph - 0.07 in Rain , Thunderstorm Light Rain
7:59 PM 71.6 °F - 68.0 °F 88% 29.55 in 7.0 mi South 15.0 mph 23.0 mph 0.02 in Rain , Thunderstorm Light Thunderstorms and Rain
8:10 PM 69.8 °F - 68.0 °F 94% 29.57 in 2.0 mi South 12.7 mph 25.3 mph 0.16 in Rain , Thunderstorm Thunderstorms and Rain
8:19 PM 69.8 °F - 68.0 °F 94% 29.57 in 3.0 mi SW 18.4 mph 24.2 mph 0.19 in Rain , Thunderstorm Heavy Thunderstorms and Rain
8:22 PM 69.8 °F - 66.2 °F 88% 29.59 in 1.8 mi SW 31.1 mph 38.0 mph 0.25 in Rain , Thunderstorm Heavy Thunderstorms and Rain
8:26 PM 66.2 °F - 64.4 °F 94% 29.58 in 0.8 mi SW 16.1 mph 38.0 mph 0.40 in Rain , Thunderstorm Heavy Thunderstorms and Rain
8:28 PM 66.2 °F - 64.4 °F 94% 29.57 in 0.8 mi WSW 13.8 mph 38.0 mph 0.54 in Rain , Thunderstorm Heavy Thunderstorms and Rain
8:35 PM 66.2 °F - 64.4 °F 94% 29.56 in 2.5 mi WSW 9.2 mph - 0.64 in Rain , Thunderstorm Thunderstorms and Rain
8:42 PM 64.4 °F - 64.4 °F 100% 29.54 in 6.0 mi SSE 4.6 mph - 0.66 in Rain , Thunderstorm Thunderstorms and Rain
8:52 PM 64.9 °F - 63.0 °F 93% 29.53 in 8.0 mi SE 5.8 mph - 0.68 in Rain , Thunderstorm Light Thunderstorms and Rain
9:26 PM 66.2 °F - 62.6 °F 88% 29.58 in 10.0 mi SSW 12.7 mph 18.4 mph 0.03 in Rain Light Rain
9:52 PM 64.9 °F - 63.0 °F 93% 29.56 in 10.0 mi South 17.3 mph - 0.03 in   Mostly Cloudy
10:52 PM 64.0 °F - 61.0 °F 90% 29.57 in 10.0 mi SE 18.4 mph 23.0 mph N/A   Partly Cloudy
11:52 PM 64.0 °F - 62.1 °F 93% 29.54 in 10.0 mi SE 10.4 mph - 0.00 in Rain Light Rain